OSCAR 7 (AO-7) 1 07530U 74089B 26160.31226999 -.00000035 00000+0 69227-4 0 9997 2 07530 101.9901 173.4766 0012488 144.7701 229.1729 12.53697932359533 PHASE 3B (AO-10) 1 14129U 83058B 26158.17238870 -.00000194 00000+0 00000+0 0 9992 2 14129 25.9048 221.2242 6014266 112.9115 319.2048 2.05872980295281 UOSAT 2 (UO-11) 1 14781U 84021B 26160.43538020 .00001122 00000+0 11981-3 0 9994 2 14781 97.8054 126.0969 0006913 198.6022 161.4945 14.90763984255975 LUSAT (LO-19) 1 20442U 90005G 26160.50739886 .00000107 00000+0 54932-4 0 9991 2 20442 98.8852 182.1012 0010721 224.9384 135.0932 14.34120851901295 EYESAT A (AO-27) 1 22825U 93061C 26160.44809160 .00000080 00000+0 47247-4 0 9990 2 22825 98.6881 227.8641 0009416 119.8201 240.3919 14.30940206705899 ITAMSAT (IO-26) 1 22826U 93061D 26160.42981208 .00000081 00000+0 47221-4 0 9996 2 22826 98.6830 227.7625 0010031 105.1057 255.1236 14.31366839706204 RADIO ROSTO (RS15) 1 23439U 94085A 26160.48871985 -.00000037 00000+0 14709-3 0 9996 2 23439 64.8186 315.6669 0155713 5.3005 354.9525 11.27583629295033 JAS-2 (FO-29) 1 24278U 96046B 26160.54794969 -.00000003 00000+0 29285-4 0 9999 2 24278 98.5247 10.4666 0350783 116.2031 247.5618 13.53273773472134 TECHSAT 1B (GO-32) 1 25397U 98043D 26160.47814272 .00000062 00000+0 47013-4 0 9996 2 25397 99.0065 153.0425 0000612 183.0488 177.0687 14.24426925450237 ISS (ZARYA) 1 25544U 98067A 26160.51346515 .00007341 00000+0 13794-3 0 9996 2 25544 51.6332 338.0748 0006877 150.8507 209.2867 15.49683556570568 PCSAT (NO-44) 1 26931U 01043C 26160.54616119 .00000088 00000+0 63924-4 0 9990 2 26931 67.0511 264.0346 0006106 264.2446 95.7959 14.31953409289359 SAUDISAT 1C (SO-50) 1 27607U 02058C 26160.33310560 .00000929 00000+0 12688-3 0 9990 2 27607 64.5504 153.2855 0075433 263.9300 95.3207 14.83029515263298 CUTE-1 (CO-55) 1 27844U 03031E 26160.52062595 .00000275 00000+0 13789-3 0 9995 2 27844 98.6735 169.1759 0009021 200.7824 159.2990 14.24331052190581 CUBESAT XI-IV (CO-57) 1 27848U 03031J 26160.01325554 .00000222 00000+0 11652-3 0 9999 2 27848 98.6766 168.3941 0008561 222.5153 137.5363 14.23616414190218 MOZHAETS 4 (RS22) 1 27939U 03042A 26160.61180500 .00000462 00000+0 79517-4 0 9999 2 27939 98.3474 344.7569 0010158 296.8131 152.9400 14.73452857214431 CUBESAT XI-V 1 28895U 05043F 26160.38487946 .00001300 00000+0 21228-3 0 9999 2 28895 98.2976 315.8433 0013165 226.6554 133.3557 14.72610450100602 CUTE-1.7+APD II (CO-65) 1 32785U 08021C 26160.55888833 .00005244 00000+0 33207-3 0 9991 2 32785 97.8272 141.8191 0010343 61.2835 298.9432 15.09380243984040 SEEDS II (CO-66) 1 32791U 08021J 26160.23552937 .00016060 00000+0 51422-3 0 9993 2 32791 97.7519 157.7552 0002294 29.0945 331.0423 15.32477826986071 YUBILEINY (RS30) 1 32953U 08025A 26160.61400412 .00000056 00000+0 33418-3 0 9992 2 32953 82.5049 0.1521 0019190 330.9888 29.0124 12.43179037818754 KKS-1 (KISEKI) 1 33499U 09002H 26160.56540915 .00001291 00000+0 16530-3 0 9999 2 33499 98.1192 82.8870 0006987 324.5860 35.4888 14.83104573935066 SWISSCUBE 1 35932U 09051B 26160.23220341 .00000884 00000+0 18430-3 0 9997 2 35932 98.4042 67.9819 0005536 231.7827 128.2876 14.62466323887992 BEESAT-1 1 35933U 09051C 26160.51132019 .00000778 00000+0 16607-3 0 9999 2 35933 98.3972 67.9173 0003918 247.5852 112.4933 14.61708260888068 ITUPSAT1 1 35935U 09051E 26160.49549254 .00000698 00000+0 15408-3 0 9990 2 35935 98.4055 67.1012 0006085 262.7226 97.3282 14.60429234887617 XIWANG-1 (HOPE-1) 1 36122U 09072B 26160.56797148 -.00000405 00000+0 -94358-3 0 9996 2 36122 100.4023 114.5218 0006811 250.9033 109.1343 13.16437400792004 O/OREOS (USA 219) 1 37224U 10062C 26160.22668022 .00002113 00000+0 20525-3 0 9993 2 37224 71.9704 98.3700 0012386 80.4823 279.7746 14.93710062115451 JUGNU 1 37839U 11058B 26160.26883713 .00000405 00000+0 72297-4 0 9997 2 37839 19.9621 356.5333 0018550 349.0526 166.6651 14.13774628757908 SRMSAT 1 37841U 11058D 26160.53493752 .00000362 00000+0 52397-4 0 9991 2 37841 19.9710 105.7844 0011936 119.8301 40.8059 14.11573956756730 STRAND-1 1 39090U 13009E 26160.46722360 .00000269 00000+0 10495-3 0 9997 2 39090 98.3920 340.8917 0007447 251.7125 108.3252 14.37158714695957 ZACUBE-1 (TSHEPISOSAT) 1 39417U 13066B 26160.47518227 .00003043 00000+0 23849-3 0 9999 2 39417 97.8090 122.7702 0040069 274.7996 84.8653 15.01140367679579 GOMX-1 1 39430U 13066Q 26160.62751692 .00001871 00000+0 28490-3 0 9990 2 39430 97.6494 1.5673 0130146 101.5421 260.0431 14.69431873668801 CUBEBUG-2 (LO-74) 1 39440U 13066AA 26160.42661912 .00003357 00000+0 31222-3 0 9992 2 39440 97.8902 109.3723 0059152 54.2261 306.4438 14.93700353675836 FUNCUBE-1 (AO-73) 1 39444U 13066AE 26160.43303962 .00004901 00000+0 30669-3 0 9995 2 39444 97.8268 131.7174 0034858 227.8994 131.9269 15.09396559678496 UWE-3 1 39446U 13066AG 26160.12782108 .00003499 00000+0 30256-3 0 9999 2 39446 97.8686 116.1479 0048769 348.2293 11.7784 14.96959057676378 UNISAT-6 1 40012U 14033C 26160.40122271 .00002405 00000+0 26157-3 0 9996 2 40012 97.7869 313.2514 0046431 94.2161 266.4364 14.88204191645009 DUCHIFAT-1 1 40021U 14033M 26160.40712241 .00091547 00000+0 99932-3 0 9994 2 40021 98.0469 218.4842 0004339 129.4692 230.6949 15.63050538654538 QB50P1 1 40025U 14033R 26160.50467361 .00007898 00000+0 39023-3 0 9990 2 40025 98.0973 171.1125 0007223 246.0165 114.0312 15.18143870651861 LILACSAT-2 1 40908U 15049K 26160.59637230 .00016137 00000+0 27744-3 0 9994 2 40908 97.4659 197.1503 0005255 281.9066 78.1597 15.51193031594574 FOX-1A (AO-85) 1 40967U 15058D 26160.50473677 .00002485 00000+0 22900-3 0 9993 2 40967 64.7758 302.8578 0130003 59.6042 301.7845 14.90932457112423 CAS-2T & KS-1Q 1 41847U 16066G 26160.48328973 .00001622 00000+0 23478-3 0 9999 2 41847 98.3822 236.3075 0342510 152.7905 209.1703 14.44668740503686 RADFXSAT (FOX-1B) 1 43017U 17073E 26159.34389375 .00007664 00000+0 33533-3 0 9990 2 43017 97.4721 26.7398 0150895 359.9259 0.1924 15.12571253464059 DIWATA-2B 1 43678U 18084H 26160.63406906 .00002367 00000+0 19325-3 0 9998 2 43678 98.1174 356.5150 0012075 194.9472 165.1395 15.00416382415084 ES'HAIL 2 1 43700U 18090A 26160.20434110 .00000161 00000+0 00000+0 0 9998 2 43700 0.0163 288.9745 0001916 188.7115 239.2727 1.00273583 27591 FOX-1CLIFF (AO-95) 1 43770U 18099N 26160.08109071 .00008954 00000+0 34498-3 0 9995 2 43770 97.4389 220.3580 0008826 27.1898 332.9801 15.26538897411985 ITASAT 1 43786U 18099AE 26160.11674282 .00005227 00000+0 25280-3 0 9996 2 43786 97.4032 211.7901 0012983 28.2656 331.9281 15.18954369411686 JY1SAT (JO-97) 1 43803U 18099AX 26160.13509799 .00014955 00000+0 46531-3 0 9998 2 43803 97.4132 222.9432 0004209 303.3283 56.7556 15.33397143412399 UWE-4 1 43880U 18111E 26159.73543038 .00034399 00000+0 71406-3 0 9999 2 43880 97.5854 87.7396 0007084 15.0599 345.0859 15.45597673409471 TIANYAN 01 1 44881U 19093C 26160.64033169 .00001364 00000+0 15987-3 0 9990 2 44881 97.7529 233.0564 0014975 109.0061 251.2779 14.86510564350294 RS-44 & BREEZE-KM R/B 1 44909U 19096E 26160.49976325 .00000034 00000+0 88333-4 0 9996 2 44909 82.5217 344.8144 0217822 162.0929 198.8004 12.79748674301360 SALSAT 1 46495U 20068K 26160.49232390 .00007245 00000+0 25454-3 0 9991 2 46495 97.8855 163.0891 0008742 339.5990 20.4898 15.29688082314186 XW-3 (CAS-9) 1 50466U 21131B 26160.62673997 .00000482 00000+0 16254-3 0 9997 2 50466 98.4971 253.0574 0005268 114.2262 245.9478 14.41351092234026 GREENCUBE (IO-117) 1 53109U 22080E 26152.46502029 -.00000003 00000+0 00000+0 0 9996 2 53109 70.1435 303.7143 0008869 293.3663 66.6064 6.42583280 91055 UMKA 1 (RS40S) 1 57172U 23091G 26160.52714999 .00005472 00000+0 25129-3 0 9997 2 57172 97.5055 219.2542 0013874 141.6738 218.5486 15.20728331162840 CUBESX-HSE 3 (RS42S) 1 57178U 23091N 26160.52746242 .00012684 00000+0 42469-3 0 9998 2 57178 97.5095 226.0188 0012150 118.3158 241.9310 15.31019782163252 MONITOR-3 (RS58S) 1 57180U 23091Q 26160.53514910 .00009956 00000+0 36977-3 0 9992 2 57180 97.5088 223.9258 0013040 124.3994 235.8480 15.27685990163126 MONITOR-4 (RS57S) 1 57182U 23091S 26160.44914730 .00009281 00000+0 34396-3 0 9992 2 57182 97.5082 223.8099 0013037 125.0080 235.2384 15.27777428163118 MONITOR-2 (RS39S) 1 57184U 23091U 26160.53883538 .00004266 00000+0 20774-3 0 9998 2 57184 97.5078 218.8715 0012422 134.6320 225.5929 15.18838681162793 SVYATOBOR 1 (RS60S) 1 57187U 23091X 26160.52119486 .00008473 00000+0 32703-3 0 9993 2 57187 97.5093 224.2964 0010873 117.3158 242.9189 15.26483432163145 VIZARD-METEO (RS38S) 1 57189U 23091Z 26160.52504840 .00015332 00000+0 44197-3 0 9999 2 57189 97.5095 229.8581 0008655 100.5439 259.6780 15.35780089163517 POLYTECH-UNIVERSE 3 (R*) 1 57191U 23091AB 26160.43530168 .00004859 00000+0 23446-3 0 9990 2 57191 97.5052 218.2732 0016385 151.7216 208.4911 15.19038195162774 UTMN 2 (RS27S) 1 57203U 23091AP 26160.54924757 .00011969 00000+0 39093-3 0 9992 2 57203 97.5090 227.6654 0009471 106.4807 253.7475 15.31862137163378 KUZGTU 1 (RS47S) 1 57217U 23091AV 26160.51182913 .00011116 00000+0 38819-3 0 9993 2 57217 97.5068 224.9144 0012344 121.6096 238.6350 15.29683401163202 SONATE-2 1 59112U 24043Q 26160.36898837 .00034035 00000+0 45197-3 0 9991 2 59112 97.5522 310.2893 0006662 222.2794 137.7948 15.58132501126676 MESAT1 1 60209U 24125G 26160.55067271 .00047271 00000+0 53241-3 0 9997 2 60209 97.2317 17.8634 0008827 233.2238 126.8211 15.62376813108377 OOV-CUBE (TUBSAT-30) 1 60240U 24128F 26160.53649287 .00002156 00000+0 17279-3 0 9990 2 60240 61.9950 252.2499 0045583 132.0465 228.4520 15.02741636104961 COLIBRI-S (RS67S) 1 61746U 24199M 26160.49661720 .00020556 00000+0 40252-3 0 9992 2 61746 97.3009 34.2825 0006530 315.9012 44.1717 15.47404407136227 HORS 3 (RS81S) 1 61753U 24199U 26160.55902927 .00033202 00000+0 50541-3 0 9998 2 61753 97.2991 36.2507 0004189 324.2219 35.8753 15.54443847136375 HORS 4 (RS82S) 1 61754U 24199V 26160.54219548 .00044357 00000+0 57013-3 0 9992 2 61754 97.2940 37.3865 0003163 311.0034 49.0948 15.58967874136456 ARCTICSAT 1 (RS74S) 1 61762U 24199AD 26160.52862703 .00981020 57856-3 10026-2 0 9990 2 61762 97.2858 44.2155 0008367 205.6667 154.4203 16.10882981136890 SIT-2086 1 61764U 24199AF 26160.46355279 .00032903 00000+0 53625-3 0 9995 2 61764 97.2949 36.6568 0004458 295.1942 64.8849 15.52550657133235 HYPERVIEW 1G (RS66S) 1 61772U 24199AP 26160.50125704 .00071217 00000+0 50272-3 0 9993 2 61772 97.2889 39.8433 0002236 269.4785 90.6223 15.73836516133466 ALTAIR (RS65S) 1 61779U 24199AW 26160.49461285 .00010560 00000+0 29443-3 0 9995 2 61779 97.3045 29.8968 0011886 341.9054 18.1766 15.36875966135938 ASRTU-1 (AO-123) 1 61781U 24199AY 26160.54099932 .00006941 00000+0 20257-3 0 9992 2 61781 97.3015 29.2811 0013094 343.8400 16.2424 15.35565591132754 SAMSAT-IONOSPHERE (RS7*) 1 61784U 24199BB 26160.54143821 .00041415 00000+0 57369-3 0 9991 2 61784 97.2962 36.2522 0006227 316.5740 43.5024 15.56959748136373 RTU MIREA 1 (RS51S) 1 61785U 24199BC 26160.51828802 .00051026 00000+0 62375-3 0 9990 2 61785 97.2952 37.0215 0005617 309.6342 50.4419 15.60253180133277 TEVEL2-4 1 63213U 25052D 26160.42210497 .00016258 00000+0 49079-3 0 9996 2 63213 97.3919 56.8032 0004487 117.1675 243.0026 15.34336880 68923 TEVEL2-5 1 63214U 25052E 26160.44174179 .00016872 00000+0 51188-3 0 9991 2 63214 97.3913 56.7715 0004440 119.7203 240.4482 15.34169212 68929 TEVEL2-6 1 63215U 25052F 26160.45389219 .00017006 00000+0 51654-3 0 9994 2 63215 97.3915 56.7681 0004470 119.5298 240.6391 15.34131711 68923 TEVEL2-1 1 63217U 25052H 26160.21926554 .00015298 00000+0 47283-3 0 9993 2 63217 97.3890 56.1670 0004303 128.3917 231.7713 15.33600892 68873 TEVEL2-3 1 63218U 25052J 26160.27943529 .00016163 00000+0 49846-3 0 9990 2 63218 97.3888 56.2474 0004411 129.8518 230.3113 15.33659205 68889 TEVEL2-2 1 63219U 25052K 26159.69763688 .00018164 00000+0 56087-3 0 9999 2 63219 97.3887 55.6477 0004230 131.0442 229.1167 15.33595395 68799 TEVEL2-9 1 63237U 25052AD 26160.18680802 .00014556 00000+0 47809-3 0 9994 2 63237 97.3949 55.5291 0007021 153.2929 206.8676 15.31651687 68802 TEVEL2-7 1 63238U 25052AE 26160.42222552 .00013645 00000+0 45228-3 0 9997 2 63238 97.3953 55.6832 0007142 153.2033 206.9579 15.31369912 68833 TEVEL2-8 1 63239U 25052AF 26160.43039691 .00013793 00000+0 45738-3 0 9999 2 63239 97.3952 55.6688 0007153 153.7009 206.4597 15.31353738 68836 INNOSAT 16 (RS92S7) 1 64878U 25155C 26160.52387127 .00005359 00000+0 21502-3 0 9995 2 64878 97.4557 127.6765 0009626 202.9249 157.1561 15.25375946 79501 GEOSCAN 6 (RS92S6) 1 64879U 25155D 26160.52999146 .00009408 00000+0 32621-3 0 9999 2 64879 97.4549 129.0530 0007311 188.3013 171.8108 15.30007612 79591 GEOSCAN 1 (RS92S1) 1 64880U 25155E 26160.53538821 .00009966 00000+0 33926-3 0 9999 2 64880 97.4546 129.1998 0007249 187.9564 172.1563 15.30591459 79603 239ALFEROV (RS61S) 1 64881U 25155F 26160.51584688 .00012928 00000+0 41094-3 0 9997 2 64881 97.4547 129.7161 0006929 184.4706 175.6476 15.32734436 79637 GEOSCAN 2 (RS92S2) 1 64890U 25155Q 26160.53042749 .00009949 00000+0 33588-3 0 9994 2 64890 97.4545 129.3442 0007128 173.4176 186.7159 15.30863086 79615 GEOSCAN 5 (RS92S5) 1 64891U 25155R 26160.50646294 .00012866 00000+0 40502-3 0 9993 2 64891 97.4540 129.8411 0005607 187.5062 172.6097 15.33053354 79642 GEOSCAN 4 (RS92S4) 1 64892U 25155S 26160.55668023 .00013205 00000+0 41366-3 0 9990 2 64892 97.4543 129.9381 0005673 187.7667 172.3488 15.33204240 79653 GEOSCAN 3 (RS92S3) 1 64893U 25155T 26160.50199328 .00015719 00000+0 46271-3 0 9995 2 64893 97.4532 130.2907 0005570 185.4864 174.6319 15.35138341 79671 INNOSAT 3 (RS92S0) 1 64894U 25155U 26160.53338122 .00034072 00000+0 76499-3 0 9994 2 64894 97.4483 131.8490 0005119 170.8140 189.3202 15.43288753 79783 KNACKSAT-2 1 67683U 98067XZ 26160.21299138 .00044471 00000+0 55732-3 0 9994 2 67683 51.6310 334.5675 0010139 180.3402 179.7586 15.59248117 19032